Location: Battersea Observatory
(44.4318°N, 76.3841°W)
Time: 22:05:54
(UTC-04:00)

Tiros 1 despin weight - Pass Details

Date: 27 January 2022
Orbit: 592 x 639 km, 48.2° (Epoch: 25 May)

Event Time Altitude Azimuth Distance (km) Brightness Sun altitude
Rises 21:44:50 0° 291° (WNW) 2,922 ? -48.6°
Enters shadow 21:44:54 - 291° (WNW) 2,895 ? -48.6°
Reaches altitude 10° 21:47:14 10° 285° (WNW) 2,018 - -49.0°
Maximum altitude 21:51:38 43° 214° (SW) 891 - -49.7°
Drops below altitude 10° 21:56:04 10° 143° (SE) 2,024 - -50.4°
Sets 21:58:28 0° 137° (SE) 2,931 - -50.8°
